• Processing (Info)

  • MPEC 2019-V48 : 2019 VC1

    The following Minor Planet Electronic Circular may be linked-to from your own Web pages, but must not otherwise be redistributed electronically.

    A form allowing access to any MPEC is at the bottom of this page.


    Read MPEC 2019-V47 Read MPEC 2019-V49


    M.P.E.C. 2019-V48                              Issued 2019 November 4, 14:10 UT
    
         The Minor Planet Electronic Circulars contain information on unusual
             minor planets and routine data on comets.  They are published
        on behalf of Division F of the International Astronomical Union by the
              Minor Planet Center, Smithsonian Astrophysical Observatory,
                              Cambridge, MA 02138, U.S.A.
    
                 Prepared using the Tamkin Foundation Computer Network
    
                                  MPC@CFA.HARVARD.EDU
                URL https://www.minorplanetcenter.net/    ISSN 1523-6714
    
                                    2019 VC1                                 
    
    
    Observations:
         K19V01C* C2019 11 01.11440 21 15 05.40 -13 31 20.4          20.5 GVEV048G96
         K19V01C  C2019 11 01.12019 21 15 09.42 -13 31 16.9          20.9 GVEV048G96
         K19V01C  C2019 11 01.12595 21 15 13.48 -13 31 13.7          20.5 GVEV048G96
         K19V01C  C2019 11 01.13171 21 15 17.52 -13 31 10.5          20.6 GVEV048G96
         K19V01C  C2019 11 01.16155621 15 38.37 -13 30 52.2          20.2 GVEV048H01
         K19V01C  C2019 11 01.16563821 15 41.23 -13 30 49.6          20.6 GVEV048H01
         K19V01C  C2019 11 01.18061921 15 51.75 -13 30 40.2          20.3 GVEV048H01
         K19V01C  C2019 11 01.18358221 15 53.83 -13 30 38.3          20.5 GVEV048H01
         K19V01C  C2019 11 01.18697 21 15 56.32 -13 30 35.9          20.4 GVEV048I52
         K19V01C  C2019 11 01.18822 21 15 57.18 -13 30 35.6                VEV048I52
         K19V01C  C2019 11 01.19072 21 15 58.90 -13 30 33.7          20.5 GVEV048I52
         K19V01C KC2019 11 02.01339521 25 40.68 -13 21 36.1          20.5 VuEV048H21
         K19V01C KC2019 11 02.02037721 25 45.47 -13 21 31.1          20.7 VuEV048H21
         K19V01C KC2019 11 02.02375121 25 47.80 -13 21 29.0          20.6 VuEV048H21
         K19V01C KC2019 11 02.04890 21 26 05.35 -13 21 10.9          21.8 GVEV048734
         K19V01C KC2019 11 02.05295 21 26 08.13 -13 21 08.1          20.4 GVEV048734
         K19V01C KC2019 11 02.06089 21 26 13.62 -13 21 02.2          20.7 GVEV048734
         K19V01C KC2019 11 02.06487 21 26 16.27 -13 20 59.4          20.4 GVEV048734
         K19V01C  C2019 11 02.06816 21 26 19.03 -13 20 54.9          21.1 GVEV048I52
         K19V01C  C2019 11 02.06915 21 26 19.71 -13 20 54.1          20.4 GVEV048I52
         K19V01C  C2019 11 02.07111 21 26 21.04 -13 20 52.9          20.3 GVEV048I52
         K19V01C KC2019 11 02.07644 21 26 24.28 -13 20 50.9          20.0 RqEV048H36
         K19V01C KC2019 11 02.08590 21 26 30.73 -13 20 44.9          19.8 RqEV048H36
         K19V01C KC2019 11 02.09666 21 26 38.15 -13 20 36.7          19.8 RqEV048H36
         K19V01C KC2019 11 03.03516 21 37 25.84 -13 08 36.2          19.9 RqEV048H36
         K19V01C KC2019 11 03.04200 21 37 30.42 -13 08 30.1          20.4 GVEV048734
         K19V01C KC2019 11 03.04696 21 37 33.82 -13 08 25.8          20.5 GVEV048734
         K19V01C KC2019 11 03.05020 21 37 35.89 -13 08 22.7          20.3 RqEV048H36
         K19V01C KC2019 11 03.06233 21 37 44.04 -13 08 13.0          20.6 GVEV048734
         K19V01C KC2019 11 03.06494 21 37 45.82 -13 08 10.7          20.1 RqEV048H36
         K19V01C KC2019 11 03.06743 21 37 47.48 -13 08 08.8          20.9 GVEV048734
         K19V01C  C2019 11 04.08446821 49 09.37 -12 53 20.1          20.3 GVEV048H01
         K19V01C  C2019 11 04.08771321 49 11.49 -12 53 17.0          20.7 GVEV048H01
         K19V01C  C2019 11 04.09045 21 49 13.36 -12 53 13.8          20.8 GVEV048I52
         K19V01C  C2019 11 04.09143 21 49 13.98 -12 53 13.0          21.6 GVEV048I52
         K19V01C  C2019 11 04.09240 21 49 14.63 -12 53 11.8          21.1 GVEV048I52
         K19V01C  C2019 11 04.09823521 49 18.29 -12 53 07.3          19.8 GVEV048H01
         K19V01C  C2019 11 04.10630821 49 23.54 -12 53 00.0          20.1 GVEV048H01
    
    Observer details:
    734 Farpoint Observatory, Eskridge.  Observers G. Hug, D. Cromer, D. Goodin.  
        Measurer D. Cromer.  0.69-m reflector + CCD.
    G96 Mt. Lemmon Survey.  Observer H. Groeller.  Measurers E. J. Christensen, G. 
       A. Farneth, D. C. Fuls, A. R. Gibbs, A. D. Grauer, H. Groeller, R. A. 
       Kowalski, S. M. Larson, G. J. Leonard, T. A. Pruyne, D. Rankin, R. L. Seaman,
        F. C. Shelly, K. W. Wierzchos.  1.5-m reflector + 10K CCD.
    H01 Magdalena Ridge Observatory, Socorro.  Observers W. H. Ryan, E. V. Ryan.  
        Measurer W. H. Ryan.  2.4-m f/8.9 Ritchey-Chretien + CCD.
    H21 Astronomical Research Observatory, Westfield.  Observer R. Holmes.  
        Measurers S. Foglia, L. Buzzi, T. Linder, R. Holmes.  0.76-m f/3.0 
       astrograph + CCD.
    H36 Sandlot Observatory, Scranton.  Observer G. Hug.  0.56-m reflector + CCD.
    I52 Steward Observatory, Mt. Lemmon Station.  Observers G. J. Leonard, R. A. 
       Kowalski, K. W. Wierzchos.  Measurers E. J. Christensen, G. A. Farneth, D. 
       C. Fuls, A. R. Gibbs, A. D. Grauer, H. Groeller, R. A. Kowalski, S. M. 
       Larson, G. J. Leonard, T. A. Pruyne, D. Rankin, R. L. Seaman, F. C. Shelly, 
       K. W. Wierzchos.  1.0-m reflector + CCD.
    
    Orbital elements:
    2019 VC1                                            PHA, Earth MOID = 0.0343 AU
    Epoch 2019 Apr. 27.0 TT = JDT 2458600.5                 Veres
    M 329.52632              (2000.0)            P               Q
    n   0.21039664     Peri.  115.78448     +0.79121017     +0.60660005
    a   2.7996915      Node   207.08007     -0.60417792     +0.75572206
    e   0.6989116      Incl.    9.81554     -0.09463360     +0.24682089
    P   4.68           H   21.1           G   0.15           U   9
    Residuals in seconds of arc
    191101 G96  0.4+  0.4+    191102 H21  0.0   0.0     191103 734  0.9+  0.1+
    191101 G96  0.2-  0.4+    191102 734  0.2+  0.0     191103 H36  0.4-  0.5+
    191101 G96  0.1+  0.0     191102 734  0.1+  0.0     191103 734  0.2-  0.2+
    191101 G96  0.1+  0.3-    191102 734  0.6+  0.2+    191103 H36  0.4+  0.3+
    191101 H01  0.1+  0.0     191102 734  0.7-  0.1+    191103 734  0.2+  0.2+
    191101 H01  0.0   0.0     191102 I52  0.1-  0.1-    191104 H01  0.0   0.2-
    191101 H01  0.1-  0.0     191102 I52  0.1-  0.0     191104 H01  0.2+  0.0
    191101 H01  0.2-  0.1+    191102 I52  0.4-  0.2-    191104 I52  0.1-  0.0
    191101 I52  0.4+  0.1-    191102 H36  0.3+  0.3+    191104 I52  0.3-  0.1-
    191101 I52  0.1+  0.6-    191102 H36  0.5-  0.6-    191104 I52  0.0   0.3+
    191101 I52  0.4-  0.2-    191102 H36  0.1-  0.2-    191104 H01  0.2-  0.1-
    191102 H21  0.2+  0.2+    191103 H36  0.0   0.7-    191104 H01  0.0   0.2-
    191102 H21  0.1-  0.3+    191103 734  0.2-  0.2-
    
    Ephemeris:
    2019 VC1                 a,e,i = 2.80, 0.70, 10                  q = 0.8430
    Date    TT    R. A. (2000) Decl.     Delta      r    Elong.  Phase     V
    2019 10 05    16 46 09.5 -08 24 30   0.3876  0.8798    60.9    96.4    22.2
    ...
    2019 10 20    18 49 51.9 -12 45 56   0.2786  0.9697    76.5    87.2    21.3
    ...
    2019 10 28    20 24 46.8 -13 52 40   0.2619  1.0328    91.1    74.2    20.9
    ...
    2019 11 03    21 37 01.2 -13 08 40   0.2760  1.0848   102.2    63.4    20.7
    2019 11 04    21 48 13.0 -12 54 15   0.2806  1.0937   103.9    61.7    20.7
    2019 11 05    21 59 04.3 -12 38 20   0.2857  1.1028   105.5    60.1    20.7
    ...
    2019 11 11    22 56 13.6 -10 42 38   0.3271  1.1584   113.1    51.8    20.9
    ...
    2019 11 19    23 52 15.6 -07 56 21   0.4050  1.2355   118.8    44.5    21.3
    ...
    2019 12 04    00 57 24.2 -03 30 05   0.5958  1.3846   120.2    38.0    22.2
    
    A. U. Tomatic                (C) Copyright 2019 MPC           M.P.E.C. 2019-V48
    


    Read MPEC 2019-V47 Read MPEC 2019-V49


    MPEC number:

    Enter an MPEC number in one of the following forms:

    • 1997-B01 (the full form)
    • J97B01 (the packed version of the full form)
    • B01 (the abbreviated form)